星链-5024 (STARLINK-5024 )

导读

STARLINK-5024是美国太空探索技术公司(SpaceX)星链(Starlink)互联网卫星星座的一员,于2022年9月24日发射入轨,属于星链项目第二批组网卫星。星链星座旨在为全球提供高速低延迟互联网覆盖,该卫星承担着补充星座容量、增强全球网络服务覆盖能力的作用。

基本信息
目录编号:
53901
目录名称:
STARLINK-5024
国际标识:
2022-119R
轨道中心:
EARTH
卫星名称:
星链-5024
卫星全名:
星链-5024 (STARLINK-5024 )
卫星状态:
已陨落 最后检测时间 2026-04-14
发射日期:
2022-09-24 UTC
国别 :
美国 (US)
星等 :
--
轨道信息
数据来源 国际轨道数据
星历时间: 2026-04-14T11:44:48+0800
轨道信息已过期62天
半长轴: 6516.04km
偏心率: 0.0007512
轨道倾角: 53.183°
近地点辐角 256.825°
升交点赤经 59.484°
平近点角 103.196°
近地点: 133.008km
远地点: 142.798km
周期: 87.244分钟
每日圈数: 16.505443
详细信息
固有亮度:
5
最大亮度:
2.5
卫星平台:
Starlink v1.5
覆盖范围:
全球
运营商:
太空探索技术公司
运营商所在国:
美国
制造商(研发单位):
太空探索技术公司
制造商所在国:
美国
使用方式:
暂无
卫星简介
星链(Starlink)计划是由太空探索技术公司(SpaceX)提出的一个巨型低轨卫星互联网星座项目,计划在2019年至2024年间在太空搭建由约1.2万颗卫星组成的“星链”网络,其中1584颗将部署在地球上空550千米处的近地轨道,并从2020年开始工作。该卫星仍在工作。